User: anonymous   Login
Location: Caltech
(34.1382°N, 118.1253°W)
Time: 19:59:22
(UTC-07:00)
Language:

SL-16 R/B - Orbit

View from above orbital plane
View from above orbital plane
View from above satellite
View from above satellite

Ground track
Ground track

The orbit data is extracted from the following two-line orbital elements,

1 31793U 07029B   18174.59495770 -.00000239 +00000-0 -99762-4 0  9991
2 31793 070.9764 329.0016 0002881 276.9315 164.3192 14.14404304567190
Epoch (UTC): 23 June 2018 14:16:44
Eccentricity: 0.0002881
inclination: 70.9764°
perigee height: 842 km
apogee height: 846 km
right ascension of ascending node: 329.0016°
argument of perigee: 276.9315°
revolutions per day: 14.14404304
mean anomaly at epoch: 164.3192°
orbit number at epoch: 56719

The dashed part of the orbit path shows where the satellite is in the earth's shadow,  

DLR